Theta_e
271 271 271 271 271 271 270 271 270 270 270 270 270 270 270 271 271 271 271 271 271 271 271 272 272 273 273 273 273 273 273 273 273 273 273 272 272 272 273 273 273 273 274 274 274 274 274 274 276 279 282 282 283 286 290 292 292 292 292 292 292 293 293 292 290 290 293 297 297 298 301 307 312 315 312 310 309 312 311 316 313 313 315 315 314
270 270 270 270 269 269 269 269 269 269 269 269 269 269 269 270 270 270 270 270 271 271 271 271 272 272 273 273 273 273 272 272 272 272 272 271 271 272 272 272 272 273 273 273 272 273 274 276 278 279 280 281 282 284 288 291 291 291 291 292 292 292 294 292 291 291 290 294 296 299 300 304 309 313 312 309 309 310 314 314 313 314 315 315 314
270 269 269 269 269 269 269 268 268 268 268 268 268 268 269 269 270 269 269 270 270 271 271 271 271 272 272 272 272 271 271 271 272 272 271 271 270 270 271 272 272 272 272 272 272 272 273 274 274 275 278 280 281 284 288 290 291 290 290 291 291 292 293 294 292 291 291 292 295 296 298 302 306 311 312 311 311 313 313 312 312 314 314 314 314
269 269 269 268 268 268 268 268 267 267 267 267 267 268 268 268 269 269 269 269 269 270 270 270 271 271 271 271 270 270 270 270 270 271 271 270 270 270 271 271 271 271 271 271 271 271 272 272 272 274 276 278 281 283 287 290 290 290 290 291 291 292 293 294 294 293 293 292 294 296 298 301 306 312 311 311 312 313 313 313 313 314 313 313 314
268 268 268 267 267 267 267 267 267 267 267 267 267 267 267 268 269 269 269 269 269 269 269 270 269 269 269 269 268 268 268 268 268 269 270 270 270 270 270 271 271 271 271 271 272 271 271 272 272 274 277 279 279 280 283 287 290 290 290 291 291 292 292 293 293 294 293 292 293 297 300 302 307 311 310 309 310 310 310 311 312 312 312 312 313
268 267 267 267 266 266 266 266 266 266 266 266 267 267 267 268 268 268 268 267 267 267 267 267 268 267 267 267 267 267 267 267 267 268 268 269 269 269 270 270 270 270 271 271 271 271 271 271 271 273 274 275 278 280 282 285 289 289 290 290 291 291 292 292 293 293 293 293 294 294 299 300 302 307 310 310 308 306 306 309 311 311 310 309 310
267 266 266 266 266 266 266 266 266 266 266 266 267 267 267 267 266 266 266 265 265 265 265 265 266 266 266 266 266 266 266 266 266 267 267 267 268 268 269 269 269 270 270 270 271 271 271 271 271 273 274 275 276 277 278 282 287 289 289 290 290 291 290 291 292 292 292 292 293 296 297 300 304 303 307 310 309 308 306 305 306 307 308 309 307
266 266 266 265 265 265 266 266 266 266 266 266 266 266 266 265 265 264 264 264 263 264 264 264 264 265 265 265 265 265 265 265 266 266 267 267 268 268 268 269 269 269 270 270 271 271 271 271 272 273 274 275 277 278 280 281 285 287 289 290 290 289 289 290 291 291 291 292 293 294 297 298 301 304 306 307 306 305 307 306 303 304 305 307 308
265 265 265 265 265 265 266 266 266 266 266 265 265 264 264 263 263 263 262 262 263 263 263 263 263 263 263 264 264 264 265 265 266 266 266 267 268 268 268 269 269 269 269 270 270 271 271 271 272 272 274 277 280 281 283 285 287 287 288 288 287 287 287 286 286 287 290 292 292 295 297 298 300 301 302 303 304 303 304 306 305 305 306 305 306
265 264 264 264 265 265 265 265 265 265 264 263 263 262 262 262 261 261 261 261 261 262 262 262 262 262 262 263 264 264 265 265 267 271 272 270 270 270 270 270 269 269 269 269 270 270 271 272 272 276 277 278 279 281 282 284 285 286 287 287 287 286 285 285 285 286 286 288 291 294 295 297 299 302 302 303 305 305 305 305 303 304 305 303 304
264 264 264 264 264 264 264 264 264 263 262 262 261 261 260 260 259 259 260 260 260 261 261 261 262 262 263 263 263 264 265 266 271 273 274 275 273 271 271 271 272 272 271 271 270 271 271 272 273 275 276 278 279 282 283 284 285 287 288 289 288 287 285 285 285 285 285 286 290 294 295 296 299 303 304 304 304 304 304 305 303 302 302 300 298
263 263 263 264 264 264 263 263 262 261 261 260 260 259 259 259 258 259 259 259 260 261 261 261 262 263 263 264 264 265 265 270 272 273 275 275 276 273 272 272 272 272 272 272 272 272 273 273 274 275 276 277 279 280 282 284 286 287 288 289 289 289 289 286 285 285 285 285 286 290 295 297 300 302 304 305 303 304 305 304 302 302 301 301 300
263 263 263 263 263 263 261 261 260 259 259 259 258 258 258 258 258 258 258 259 260 260 261 262 263 264 264 264 264 265 266 270 273 274 275 276 276 275 273 273 272 272 273 273 273 273 273 273 273 274 276 279 280 281 282 284 286 287 288 288 288 288 289 289 288 286 286 286 285 287 294 299 300 302 304 305 304 303 303 302 302 303 303 302 302
262 262 262 262 262 261 260 259 258 258 258 258 258 257 257 257 258 259 259 260 260 261 262 262 262 262 263 263 264 264 265 269 272 274 275 276 277 277 274 274 274 273 273 274 274 274 273 273 273 273 274 277 281 283 284 285 285 286 286 286 286 286 287 288 288 287 287 286 286 286 290 300 301 303 304 305 304 302 302 301 302 301 301 302 303
261 261 261 261 260 259 259 258 257 257 257 257 257 257 257 257 258 259 259 260 261 261 261 261 261 262 262 263 263 263 264 270 272 274 275 276 277 277 274 274 275 275 275 275 275 274 274 274 274 273 274 275 277 280 281 283 284 284 285 285 285 286 286 286 287 287 287 288 288 289 290 296 304 305 306 307 306 306 305 302 302 302 301 299 296
260 260 259 259 258 258 257 256 256 256 256 256 256 256 257 257 258 259 260 261 261 261 261 262 261 262 262 262 262 262 263 270 272 273 274 276 277 274 274 275 275 275 275 275 275 275 275 275 274 274 275 275 279 282 283 282 281 281 282 284 285 286 286 287 288 289 288 288 289 291 294 296 301 304 303 307 307 306 303 302 301 299 297 298 297
258 259 258 258 257 257 257 256 255 255 256 255 256 256 257 257 258 260 260 260 260 260 260 261 261 261 261 261 261 262 263 267 272 273 274 276 275 273 274 275 275 275 275 275 275 275 275 275 275 275 275 276 279 281 282 283 281 281 281 282 283 284 285 287 288 289 289 289 290 291 292 295 299 303 303 304 303 302 301 299 297 298 299 297 296
259 258 257 257 257 256 256 255 255 255 255 255 255 256 257 258 259 260 259 259 259 259 260 260 260 261 261 261 261 262 264 267 272 273 274 275 275 273 273 273 274 275 275 275 275 275 275 278 278 276 276 277 280 282 284 283 281 282 282 282 283 283 284 286 287 288 289 289 290 291 292 294 297 301 302 303 301 300 301 299 298 300 298 297 295
257 257 257 257 256 255 255 255 255 255 255 255 256 256 257 258 259 259 259 259 259 260 260 259 260 260 261 261 265 264 264 266 271 272 273 275 274 273 273 273 272 272 274 275 275 276 276 277 279 279 279 280 283 284 284 284 282 282 282 282 282 282 284 286 286 286 286 287 289 294 294 295 298 302 301 300 299 300 304 302 301 301 299 297 296
257 257 256 256 255 255 255 254 254 254 254 255 256 257 258 258 258 259 259 259 259 259 259 259 259 260 261 262 262 264 264 265 267 272 274 275 276 273 272 271 271 271 273 274 274 275 276 276 278 281 282 283 284 284 285 285 283 283 283 283 282 282 285 285 286 286 286 286 287 291 297 299 300 301 301 300 300 300 305 303 302 302 300 297 296
256 255 255 254 254 254 254 254 254 254 255 255 256 257 258 258 258 258 258 258 259 259 259 259 260 260 261 263 263 264 265 266 268 273 274 275 276 275 272 272 272 272 273 273 275 275 276 276 277 280 282 283 283 284 285 286 286 285 285 284 284 285 286 285 286 286 286 286 286 289 296 297 299 300 300 300 300 302 303 302 304 304 301 298 297
254 253 253 253 253 253 253 254 254 254 255 256 256 256 257 257 258 258 258 258 258 258 259 260 260 261 262 263 264 265 267 270 268 271 274 274 275 276 273 272 274 273 273 273 274 275 277 277 277 279 282 283 283 285 286 286 286 285 285 287 288 288 286 286 286 286 286 286 286 290 295 296 297 298 299 299 299 299 302 302 303 304 303 301 300
254 252 252 252 252 252 252 253 254 254 255 256 256 255 256 257 257 257 258 258 258 258 259 260 261 262 263 264 265 266 267 268 271 270 273 274 275 276 276 275 277 275 274 273 274 275 276 277 279 281 282 283 284 284 285 286 286 286 288 288 288 288 287 286 286 285 285 285 286 291 294 295 296 297 297 298 299 300 301 302 303 303 302 301 302
252 251 250 251 251 252 252 253 253 254 254 255 255 255 255 256 257 257 258 258 258 259 260 262 263 263 263 264 265 266 268 268 270 272 271 274 275 276 277 277 277 275 274 274 274 275 275 276 278 281 282 284 284 285 285 285 285 287 288 288 288 287 286 285 285 285 285 285 286 291 293 295 296 297 297 298 298 299 300 301 301 301 299 299 299
250 249 249 250 250 251 251 252 253 253 254 254 254 255 255 255 255 257 258 259 260 260 261 263 263 263 263 264 265 266 267 267 268 270 273 274 275 275 276 276 277 277 273 274 274 275 277 279 280 281 282 283 285 285 285 285 286 287 287 288 287 286 286 285 285 285 285 285 287 292 293 295 297 298 300 300 298 299 297 297 293 290 291 291 290
249 248 248 249 249 250 251 252 253 254 254 254 254 255 255 255 256 257 259 260 260 261 262 263 263 263 264 264 265 265 266 267 267 268 270 272 273 274 274 275 275 275 275 274 277 278 279 279 280 281 281 282 282 284 283 284 285 286 287 287 286 286 286 285 285 285 285 286 288 292 294 296 297 299 299 298 297 297 296 294 293 293 292 293 293
249 248 248 249 249 250 251 252 253 254 253 254 254 255 255 255 256 258 259 260 260 261 263 263 263 263 264 264 265 265 266 266 267 267 269 270 270 271 271 271 273 274 273 273 275 275 275 277 277 280 281 282 283 284 285 285 285 286 286 286 286 286 286 286 285 285 286 287 289 293 295 296 297 296 296 296 296 296 296 295 296 294 294 295 294
248 247 247 249 249 250 250 254 253 253 253 253 253 254 255 256 257 258 259 260 260 262 264 264 263 264 264 265 265 265 265 265 266 267 269 269 270 270 270 270 270 271 271 272 274 275 276 278 278 278 279 281 283 285 285 285 285 285 285 286 286 286 286 286 286 286 287 289 292 294 293 294 294 295 295 295 296 296 295 295 296 295 294 294 292
249 247 249 248 249 250 251 250 252 252 252 253 254 255 255 257 259 259 261 262 264 264 264 264 265 265 265 265 264 264 264 265 266 272 270 273 270 269 269 269 270 270 272 276 274 275 276 277 277 277 279 280 283 284 285 285 285 285 285 285 286 286 285 285 285 285 286 288 291 292 292 293 294 294 294 295 295 295 295 296 295 295 294 295 294
247 248 248 248 249 250 250 250 251 251 251 252 253 254 258 263 262 261 261 266 268 269 269 265 266 266 266 266 267 265 265 266 272 273 273 273 273 273 273 273 274 272 274 275 275 275 276 277 277 278 279 281 282 284 284 285 285 285 285 286 286 285 286 286 286 286 287 289 291 292 292 293 293 294 294 294 294 294 295 294 295 295 294 294 294
247 247 248 247 250 251 250 251 251 251 251 252 252 253 253 255 262 264 265 266 267 268 269 269 270 270 268 266 268 271 271 271 272 272 272 272 272 272 272 272 273 273 273 268 266 266 267 269 271 273 275 278 282 284 285 285 285 285 285 285 285 286 286 286 286 287 288 290 291 292 293 293 293 293 294 294 294 294 294 295 295 295 295 295 294
247 246 247 248 250 252 251 251 251 251 251 252 252 252 252 252 253 261 264 264 266 267 267 268 269 269 270 269 269 266 269 270 271 271 271 271 271 271 271 270 272 272 271 269 263 263 265 265 266 267 269 270 272 275 278 284 285 285 285 285 285 286 286 286 287 288 289 290 291 292 292 293 293 293 294 294 293 294 294 294 294 294 295 296 295
247 246 247 248 250 251 251 250 250 250 250 251 251 252 252 251 251 251 255 262 264 264 265 266 267 268 269 270 271 270 270 270 271 271 270 270 270 270 269 269 271 271 269 262 261 261 262 264 264 265 266 266 268 270 272 275 280 285 285 285 286 286 286 287 288 289 289 291 291 292 292 293 293 293 293 293 293 293 293 293 294 294 294 294 294
247 246 247 249 250 250 250 250 250 250 250 252 251 251 251 251 251 251 251 252 254 258 261 263 265 266 268 268 270 270 270 270 270 270 270 269 269 269 267 264 269 270 267 261 261 260 261 262 264 264 265 266 267 268 269 270 273 276 282 286 286 286 287 288 288 289 290 291 291 292 292 292 292 293 293 293 293 293 293 293 293 293 293 294 294
247 249 251 252 249 250 250 251 250 250 250 250 251 252 251 252 252 251 250 250 251 251 252 254 259 264 263 264 268 269 269 269 269 269 269 268 267 267 265 259 259 260 260 261 261 260 261 262 263 264 264 265 266 266 267 268 269 272 273 277 284 286 287 288 288 289 290 291 291 292 292 292 292 293 293 293 292 292 292 292 293 293 293 293 293
248 249 250 251 250 251 250 248 249 249 250 251 252 252 252 252 251 250 251 251 251 251 252 253 254 260 264 265 268 267 267 267 267 267 267 267 266 264 257 257 258 258 259 260 260 261 261 262 263 263 264 265 265 265 266 267 268 268 270 273 278 285 287 287 288 289 290 291 291 291 291 292 292 292 293 293 292 292 293 292 293 292 293 293 293
247 248 249 250 250 250 249 248 248 250 253 252 250 250 251 250 250 250 250 249 251 251 251 251 253 254 257 258 263 264 266 265 265 265 265 265 264 257 256 257 257 258 259 259 260 260 261 262 263 263 264 264 264 265 266 266 267 267 269 270 273 278 286 288 289 289 290 291 291 291 291 292 292 292 292 292 292 292 292 292 292 292 292 292 291
247 248 248 251 252 250 249 249 248 252 250 250 250 247 248 248 249 249 249 249 251 250 250 250 253 251 252 254 262 259 258 261 262 261 261 260 255 253 255 256 256 257 258 259 260 260 261 262 262 263 263 264 264 265 265 265 266 266 267 268 271 275 281 286 289 289 290 291 291 291 291 291 292 292 292 292 292 292 292 292 292 292 291 291 292
246 251 254 256 255 249 246 247 248 247 246 247 247 248 249 248 248 248 248 248 248 249 250 249 250 251 251 254 259 259 256 253 253 253 253 253 254 253 254 255 255 256 258 259 260 260 261 262 262 263 263 264 264 264 265 265 265 266 266 267 268 271 275 282 288 289 290 291 291 291 291 292 292 292 292 292 292 292 292 291 292 292 291 291 292
246 247 251 255 250 250 248 247 246 245 246 246 246 246 246 247 246 247 247 247 248 248 248 249 249 250 251 255 259 257 252 252 252 253 252 252 253 253 253 254 254 255 256 258 260 260 261 262 263 263 263 263 264 264 265 265 265 266 266 266 266 268 270 272 277 288 290 290 291 291 291 291 292 292 292 293 292 292 292 291 291 292 292 292 292
247 248 249 252 252 247 246 246 244 245 244 245 245 244 244 246 246 247 246 247 247 248 248 248 248 249 252 258 264 261 252 251 252 252 252 252 252 252 252 253 254 255 256 258 259 260 261 261 262 263 263 264 264 264 264 265 265 265 265 266 265 266 267 269 271 273 282 289 291 291 291 291 292 292 291 292 291 292 292 292 292 292 292 292 292
242 244 247 245 246 245 244 245 244 246 243 245 243 244 245 245 245 245 246 247 247 248 247 248 248 249 253 261 261 261 253 251 252 252 252 252 252 252 252 252 254 254 255 257 259 260 261 261 262 263 263 263 264 264 265 264 264 265 265 265 265 265 265 266 267 270 271 276 288 290 291 291 291 291 292 291 292 292 292 292 292 292 292 291 291
243 244 243 245 244 243 243 243 243 242 243 243 243 247 247 245 243 245 245 246 246 247 247 247 248 249 250 256 257 257 251 251 251 251 251 251 251 251 251 252 253 254 256 257 260 261 261 261 262 263 264 264 264 264 264 264 265 265 265 265 264 264 265 265 266 267 268 271 276 286 290 290 291 291 291 291 291 291 291 291 291 291 291 291 291
243 244 244 244 243 242 243 242 242 243 242 245 245 245 245 243 242 242 243 244 245 245 246 246 247 248 248 250 251 250 249 250 250 250 251 251 251 251 251 252 252 253 255 257 259 261 261 261 262 263 264 264 265 265 265 265 265 265 265 265 265 265 264 264 265 265 267 268 271 277 287 290 290 291 290 290 291 291 291 290 290 290 291 291 290
240 242 242 241 242 240 240 241 242 241 244 243 241 241 243 241 242 242 244 244 245 245 245 246 247 247 247 248 248 248 249 249 250 250 250 251 251 251 251 251 251 252 254 256 258 260 261 261 261 262 263 264 265 265 265 266 266 266 266 265 265 264 264 264 265 266 267 268 270 275 283 289 290 291 291 291 290 290 290 290 290 289 290 290 290
240 241 242 241 241 242 241 239 243 240 240 240 240 239 240 240 240 242 244 244 245 245 245 245 245 246 247 247 247 248 248 248 249 250 250 250 250 251 251 250 251 252 254 255 256 259 260 261 261 262 263 264 264 265 265 266 266 266 266 266 266 266 265 265 266 266 267 268 270 273 280 288 290 290 289 291 291 291 291 290 290 290 290 290 290
239 241 242 241 241 241 242 241 240 240 238 240 241 240 240 241 241 243 244 245 246 245 244 244 244 245 246 246 247 247 248 248 248 249 249 250 250 250 250 250 251 251 252 254 255 258 260 260 261 261 262 264 264 265 265 266 266 266 267 267 267 267 266 266 266 266 267 268 270 271 277 287 289 289 289 290 290 290 290 290 290 289 289 290 289
240 241 241 241 240 239 239 239 240 243 239 240 240 241 242 242 241 242 241 243 243 244 244 243 243 244 245 246 246 247 247 247 248 249 249 249 249 250 249 249 250 251 252 253 254 257 259 260 260 261 262 263 265 264 265 265 266 267 267 267 267 267 267 266 266 266 267 268 269 271 272 277 282 286 288 289 289 289 289 289 289 290 289 289 289
240 240 240 240 240 240 239 240 241 238 238 239 239 239 240 240 240 240 241 242 243 243 242 243 243 244 244 245 246 246 247 247 247 248 248 249 249 249 249 249 250 250 251 252 253 256 258 259 260 261 262 263 265 265 265 265 266 266 267 267 268 268 267 266 266 266 266 267 268 269 271 272 273 273 276 283 287 289 289 288 288 287 288 288 289
242 241 241 241 240 239 240 239 238 237 238 239 238 238 240 240 239 240 243 244 245 245 245 244 243 243 244 244 245 245 246 246 246 247 247 248 248 248 249 249 249 250 251 252 252 256 258 259 260 261 261 262 265 265 265 265 266 266 267 267 268 268 267 266 266 266 266 266 267 267 268 269 270 271 272 272 275 281 285 286 286 286 286 286 286
244 244 243 241 240 240 239 236 237 237 237 238 237 237 239 238 239 243 243 244 244 243 243 243 242 243 243 244 245 245 245 245 246 246 247 247 247 248 248 248 248 249 250 251 252 255 258 259 259 260 261 262 264 266 265 266 266 266 267 268 268 268 267 267 266 266 266 266 266 266 267 267 267 268 268 270 271 272 272 275 280 284 285 286 286
Wind_Speed
4 4 4 5 5 7 7 6 7 7 8 8 10 10 10 11 11 11 12 12 12 15 14 15 15 15 17 15 17 15 16 17 15 14 15 15 15 15 17 16 19 17 17 18 14 16 18 19 19 17 12 13 14 14 14 13 12 11 11 11 12 11 11 10 16 17 15 9 11 11 14 14 12 16 15 11 14 20 18 15 17 19 20 17 19
3 4 4 4 5 6 7 5 7 7 8 9 10 10 10 10 11 12 13 13 13 14 15 14 14 16 16 19 14 17 16 19 14 17 15 18 17 15 15 17 18 19 17 19 17 14 16 18 17 14 11 13 14 15 15 13 10 10 11 11 12 11 11 12 14 14 19 11 9 11 13 16 15 15 18 17 15 10 15 15 18 19 19 19 18
4 4 4 5 6 6 6 7 7 8 9 9 10 10 11 11 11 13 13 13 12 12 13 15 16 17 17 18 19 15 18 17 17 15 18 18 18 16 16 17 18 18 19 19 19 17 18 17 16 15 12 14 15 14 15 14 10 10 12 11 12 13 12 14 13 15 17 17 10 12 12 14 15 13 17 18 20 20 18 16 18 16 15 18 17
3 3 4 5 5 6 7 7 8 8 9 8 10 10 11 11 11 12 13 12 13 13 14 16 17 17 17 19 18 18 17 16 17 16 18 19 18 18 17 18 18 19 20 19 19 17 18 18 17 15 17 17 16 13 13 13 11 10 12 12 12 14 13 13 15 13 13 15 13 9 13 13 14 13 13 17 20 19 21 19 20 21 20 18 18
3 3 4 6 7 7 8 8 8 9 9 9 10 10 11 11 10 12 12 13 14 14 15 15 16 16 16 17 19 18 18 17 18 18 18 18 18 18 18 18 18 19 19 19 18 18 18 18 17 15 15 14 14 13 12 15 11 11 10 9 11 12 12 13 13 13 15 15 15 10 12 13 12 13 14 17 17 15 15 19 20 20 20 19 18
3 3 4 6 7 8 8 8 9 9 10 10 10 10 11 11 11 11 12 15 16 15 15 15 14 17 17 18 18 19 18 18 19 19 18 17 17 17 17 17 18 18 18 19 18 18 18 19 18 17 16 17 15 12 14 15 12 11 11 11 11 11 13 14 13 14 15 16 15 12 12 13 12 12 15 19 17 13 13 17 18 19 20 18 15
3 4 5 6 7 8 8 8 9 9 9 10 10 10 10 10 11 12 12 13 15 16 15 16 15 16 18 18 18 19 20 18 18 18 18 18 18 18 18 18 18 17 17 18 18 19 19 18 18 18 18 17 17 16 16 18 14 11 11 11 11 12 14 13 12 13 14 15 14 14 13 13 12 12 14 19 19 19 17 14 17 14 15 19 17
4 5 6 7 7 8 8 8 9 9 9 9 10 10 10 11 11 11 12 14 14 15 16 16 17 16 17 18 18 18 19 19 19 19 18 18 17 17 17 17 17 17 18 18 18 18 18 19 18 18 18 18 17 16 17 17 14 13 11 11 10 8 8 9 10 12 13 13 14 13 14 14 11 11 12 16 17 15 17 19 19 18 15 15 18
4 5 6 7 7 7 8 8 8 9 9 10 10 10 11 11 11 11 12 13 13 14 15 16 18 19 19 18 19 18 18 17 15 15 16 17 17 17 17 17 17 17 17 18 18 19 18 18 18 19 20 25 28 23 21 19 13 12 12 10 10 10 10 9 7 8 9 11 14 13 13 14 14 11 13 17 20 17 14 15 19 21 19 17 16
4 6 6 7 7 8 8 8 8 9 9 10 10 11 11 11 11 11 12 12 12 13 14 15 16 18 19 19 18 17 16 14 19 28 25 19 17 16 15 16 17 16 17 17 17 17 18 17 18 27 28 29 30 30 29 30 30 21 12 8 9 9 9 8 8 7 8 11 14 14 14 15 14 15 13 15 18 18 20 18 17 16 17 15 13
4 5 7 7 7 8 8 8 8 9 8 9 9 10 12 11 11 12 12 11 12 13 13 14 15 16 19 18 18 16 16 15 27 27 28 31 23 18 18 17 17 16 14 14 15 14 15 16 16 21 24 25 23 28 28 30 29 28 27 23 16 13 10 9 9 8 8 10 12 12 14 16 16 15 18 15 17 20 18 17 17 15 18 18 15
5 6 7 7 7 7 7 8 8 8 8 9 10 11 11 11 11 12 12 13 12 12 13 14 15 16 15 17 18 18 18 23 29 28 29 30 27 19 17 16 15 14 17 16 16 17 17 16 16 14 14 17 17 18 23 28 28 27 26 26 26 24 21 13 11 10 9 10 12 14 13 16 16 16 18 19 17 18 19 19 19 19 18 19 17
5 6 6 6 6 6 6 7 7 8 8 9 10 10 11 11 12 12 13 12 13 14 14 14 14 15 16 19 18 18 18 24 28 29 29 30 30 26 17 17 16 16 16 17 17 16 17 14 17 14 14 23 19 17 16 16 20 24 25 26 28 26 25 26 22 14 10 11 12 15 16 15 17 19 19 21 20 18 17 18 20 20 20 20 18
5 7 5 4 6 6 5 6 7 7 8 9 9 10 11 11 11 11 12 12 12 12 13 15 16 16 16 18 18 18 19 24 30 30 30 31 30 27 17 18 17 16 18 16 18 15 19 13 16 14 15 17 15 13 13 12 11 9 11 11 11 15 21 23 23 22 17 13 13 16 18 17 18 19 21 22 25 22 19 19 21 21 21 21 19
5 4 4 5 5 4 5 6 7 8 9 9 10 10 11 11 11 10 10 12 12 13 14 14 14 15 16 16 17 18 18 29 30 32 31 31 30 27 17 15 14 13 13 15 16 16 18 15 17 16 17 17 17 18 15 13 12 12 13 13 13 12 11 11 12 11 10 13 14 17 19 20 20 21 21 22 27 25 25 26 27 25 19 11 9
4 3 4 4 4 5 5 6 7 8 9 10 10 11 11 11 12 12 10 10 11 12 12 13 15 15 16 16 17 18 19 30 31 31 32 30 32 18 14 14 14 13 15 17 14 17 14 16 15 16 17 17 21 25 20 14 13 15 14 14 13 12 13 13 15 14 14 14 15 17 17 20 25 20 23 24 24 23 18 13 12 13 16 16 16
3 4 5 4 3 4 5 7 8 9 9 10 11 11 12 12 11 9 11 11 12 12 12 13 12 14 15 15 16 17 16 25 30 31 31 31 24 15 15 12 11 12 15 14 13 15 15 16 16 16 17 17 22 26 26 23 15 16 16 16 15 14 15 12 16 20 23 24 27 31 35 36 34 30 29 35 25 20 16 16 16 17 19 20 16
4 4 4 3 4 4 6 6 7 9 9 10 11 11 10 9 10 9 11 12 12 12 12 12 12 12 14 16 16 17 17 24 32 31 31 29 24 17 14 14 13 12 13 12 11 11 15 25 22 17 17 17 23 27 26 20 15 14 14 15 16 16 16 12 10 12 18 23 28 33 36 34 36 32 32 31 31 27 25 24 22 21 20 19 16
2 3 4 5 4 4 5 5 6 8 9 10 10 11 11 11 10 9 9 10 11 11 11 12 12 12 13 15 23 23 17 21 30 30 29 27 22 14 12 12 12 12 12 12 11 11 12 16 23 22 19 19 26 25 26 21 14 13 13 13 15 17 15 11 11 12 13 13 16 18 18 24 26 23 23 32 35 31 27 27 24 24 24 23 21
3 4 4 4 3 4 4 5 6 7 10 10 10 9 10 10 10 11 10 9 10 10 11 11 14 13 13 14 15 16 18 18 21 28 27 27 27 18 13 12 12 12 12 12 9 10 11 12 16 22 26 27 27 28 27 27 17 14 13 14 15 18 11 9 10 9 12 13 15 19 16 15 18 19 19 23 27 27 25 23 22 22 22 21 20
2 3 3 3 3 4 5 4 7 8 8 9 10 9 9 9 11 11 11 10 10 11 12 12 13 13 12 13 14 15 14 16 18 27 26 26 28 24 12 13 11 11 12 14 12 11 10 11 12 19 24 25 27 29 29 28 24 15 14 14 14 13 10 9 11 12 12 14 15 18 15 14 16 16 18 19 19 20 21 22 24 24 22 21 21
1 2 3 3 3 4 5 6 6 7 8 8 9 9 8 9 10 11 10 11 12 13 13 12 12 13 12 12 13 15 16 22 17 22 26 27 27 28 16 14 16 14 13 12 12 11 12 11 10 16 23 24 24 25 26 25 26 16 14 18 19 18 16 11 10 10 11 11 13 14 12 12 13 14 17 18 18 18 17 19 21 22 23 23 27
2 2 2 3 4 5 5 6 8 6 8 8 9 10 9 9 10 10 11 11 11 12 13 13 13 13 13 11 13 13 13 13 22 21 26 27 28 28 29 23 24 15 11 12 12 13 12 13 14 21 23 24 24 25 25 26 22 15 17 21 23 26 19 11 10 10 10 11 12 12 10 12 13 14 15 16 16 16 16 18 18 17 18 19 22
1 1 2 3 5 6 6 7 7 6 7 8 8 9 9 9 9 9 10 10 10 11 11 13 13 13 14 14 14 11 13 14 20 25 23 29 29 29 26 26 25 16 14 12 13 14 13 13 13 22 24 24 26 26 25 25 16 17 19 22 22 20 12 9 9 10 11 11 12 10 11 13 13 14 16 16 15 16 17 18 17 16 15 15 12
0 1 3 4 5 6 7 7 6 5 6 7 8 9 9 9 9 9 9 9 10 11 11 12 12 13 14 14 15 14 15 16 14 18 26 28 28 25 27 28 25 25 16 12 13 13 18 25 27 27 26 26 26 27 24 24 28 24 23 21 17 9 9 9 10 9 10 11 11 10 12 15 16 17 18 19 19 17 14 12 7 8 8 9 9
1 2 4 4 5 6 9 9 6 4 5 6 7 7 8 9 9 9 8 9 10 13 13 13 13 14 13 16 16 17 17 13 12 14 18 19 21 25 28 26 25 25 22 17 24 27 26 25 27 27 24 21 16 12 12 13 19 24 21 18 11 10 9 10 10 10 11 10 11 12 13 14 16 16 17 16 15 14 13 12 11 11 11 12 11
3 3 5 4 4 4 6 7 9 8 5 5 6 7 7 8 8 8 9 9 8 9 13 13 12 14 15 13 16 17 13 12 15 16 13 13 14 15 18 16 20 20 14 11 14 13 16 16 14 18 19 25 26 21 16 15 14 13 12 12 10 10 10 10 10 10 10 9 10 11 12 12 12 12 12 14 15 14 15 16 16 14 13 12 13
4 4 4 3 4 5 5 8 9 9 8 6 6 6 7 7 8 9 8 9 9 9 10 11 10 10 11 12 14 14 14 14 14 16 16 15 15 15 14 13 12 11 13 13 12 14 13 15 16 11 11 11 11 7 7 9 10 9 9 9 9 10 11 12 11 9 9 9 10 8 7 8 11 12 12 14 15 15 14 15 16 14 13 13 12
4 4 4 3 4 3 4 4 5 7 9 10 7 5 6 7 8 8 10 8 11 12 13 11 11 13 13 14 13 13 15 15 16 23 22 25 22 18 14 14 13 13 18 26 18 13 10 9 7 8 9 9 8 6 6 7 8 8 9 9 8 8 7 7 8 9 9 9 9 7 8 9 11 13 15 15 14 13 13 15 16 16 14 15 16
5 5 4 3 4 4 4 4 4 5 6 8 11 12 8 11 9 8 8 18 22 23 19 14 15 13 12 12 13 17 16 17 30 34 31 30 30 30 27 27 27 22 27 30 19 8 6 5 5 7 9 8 7 6 6 6 7 7 8 8 8 7 7 7 7 7 7 9 8 9 12 12 11 12 14 15 13 13 14 16 15 15 16 15 16
5 4 3 2 4 4 4 4 4 4 4 6 6 8 14 12 12 16 19 20 21 22 22 24 26 26 18 13 16 29 30 32 34 32 32 30 31 31 29 27 28 28 29 18 12 13 12 12 11 11 11 11 9 7 5 6 6 7 7 7 7 8 8 7 7 6 8 9 8 9 12 15 14 13 15 16 17 15 13 13 15 16 17 17 16
6 3 1 2 3 5 3 3 4 4 5 4 5 6 5 10 15 17 18 19 22 22 21 23 25 26 27 24 21 14 25 33 35 34 33 32 30 30 29 27 27 28 26 24 14 14 12 11 10 10 11 10 10 11 11 7 6 6 6 7 7 7 7 8 7 7 9 8 8 9 10 13 14 14 14 15 16 16 15 14 14 17 16 16 17
6 3 0 2 3 4 3 3 3 3 4 5 6 4 5 6 8 12 18 20 20 17 19 23 25 25 27 26 30 28 27 30 34 34 34 33 31 30 30 27 25 29 31 20 12 12 12 11 11 10 10 10 11 11 10 11 10 6 6 7 7 6 7 7 6 8 9 8 8 10 10 12 14 14 13 14 15 16 15 15 15 16 16 16 14
4 2 0 2 3 3 3 3 3 3 3 5 4 5 5 4 6 7 9 12 15 18 19 22 24 26 26 27 28 31 31 32 32 33 34 34 32 29 27 17 24 30 24 12 13 11 11 11 11 11 11 10 11 11 10 11 10 11 9 5 6 5 5 6 7 9 8 8 8 9 10 9 11 14 14 13 14 15 15 15 15 14 14 15 15
4 2 2 3 2 3 2 2 3 3 4 3 4 5 5 6 6 7 8 9 11 11 12 14 18 23 21 21 27 32 30 30 30 31 33 33 34 30 25 16 19 18 19 13 13 10 10 9 10 12 11 12 12 11 11 11 10 10 9 11 7 5 4 6 7 8 9 8 8 8 11 10 10 12 14 14 14 14 15 15 14 15 16 15 15
4 1 1 2 3 2 2 2 3 4 3 3 4 4 5 5 7 6 7 7 7 9 10 11 12 18 26 25 27 30 30 30 28 29 30 32 33 30 16 15 12 11 9 13 12 11 9 9 12 11 11 11 11 11 11 11 11 10 10 10 10 7 5 6 6 8 9 9 8 8 10 11 12 11 13 15 17 17 16 17 16 16 16 15 13
3 1 1 2 2 0 1 2 3 3 4 4 4 4 5 5 6 5 7 7 8 8 8 10 11 12 14 11 19 26 29 27 27 26 29 30 32 19 9 12 11 12 12 14 14 11 13 12 12 11 11 12 12 12 11 11 11 11 11 11 10 10 7 6 7 7 9 9 9 8 10 11 12 12 13 14 14 14 15 15 15 15 14 16 16
2 1 4 4 1 1 1 2 2 5 4 3 3 3 4 4 5 5 7 7 9 9 9 10 11 11 14 15 21 15 19 22 26 24 24 25 21 15 11 13 12 11 12 13 14 13 13 12 13 14 13 12 11 12 12 11 12 11 12 12 11 10 14 9 8 8 9 9 9 9 10 10 11 13 12 14 15 14 14 15 15 15 15 18 16
1 3 3 1 2 2 1 1 2 2 3 3 3 5 7 6 6 6 7 7 7 8 9 9 9 10 12 12 11 16 18 16 17 16 17 16 16 14 13 14 12 10 11 13 13 13 13 13 13 12 12 13 12 13 11 12 12 11 12 11 11 10 11 9 6 8 8 9 8 8 10 10 11 11 13 13 14 15 15 15 15 16 16 15 16
1 0 3 2 3 3 2 2 1 2 5 3 5 4 4 6 5 6 7 7 8 8 7 8 9 10 11 11 11 13 13 13 13 14 15 16 16 17 16 15 15 13 13 14 14 13 13 13 13 13 13 14 13 13 13 12 11 11 11 10 11 11 10 10 11 6 8 8 9 9 10 11 11 11 11 11 13 14 15 16 15 16 16 17 17
1 0 1 2 2 1 1 1 2 2 2 3 3 4 3 4 5 6 5 6 7 7 8 8 8 9 10 16 27 21 9 10 12 12 13 13 14 14 13 14 13 15 13 12 13 13 13 13 13 13 13 13 13 13 13 13 13 10 10 12 11 10 10 10 9 10 10 6 9 8 10 10 12 12 12 11 11 13 13 14 15 14 15 15 15
1 0 0 1 2 0 0 2 3 3 2 3 2 2 5 5 4 4 6 6 7 8 7 8 7 8 14 27 24 26 12 9 10 12 13 14 14 15 10 11 15 14 13 13 13 14 14 14 13 13 14 14 14 14 13 13 14 13 12 11 11 11 11 10 10 10 9 10 6 9 9 10 11 12 14 12 11 11 12 13 14 14 14 14 13
2 1 1 1 0 0 1 1 1 1 2 2 2 3 4 4 3 5 5 6 6 7 7 8 9 9 10 18 21 21 10 10 9 12 12 12 13 12 11 12 16 15 13 12 12 12 13 13 13 13 13 14 14 13 13 13 13 13 12 12 11 11 10 10 11 10 10 8 9 7 9 10 11 11 11 11 11 11 11 13 13 14 14 14 14
1 2 2 1 1 0 1 1 1 2 1 3 3 4 4 3 3 4 4 5 6 6 6 7 7 9 9 12 13 11 10 11 11 11 12 12 13 13 13 14 16 13 14 14 14 14 14 14 14 13 13 13 13 13 12 12 12 12 13 13 12 12 12 11 9 10 10 10 9 9 6 9 11 11 11 11 11 12 12 12 13 13 13 13 14
3 2 1 1 1 1 1 1 1 2 3 3 1 2 3 2 4 4 4 5 7 6 6 6 7 7 9 9 10 10 10 10 10 10 12 12 13 13 14 15 12 10 13 15 14 14 14 14 15 15 15 14 15 14 13 12 12 12 11 12 13 13 12 11 10 9 9 9 9 8 8 7 10 10 11 11 12 12 12 13 13 13 13 13 14
3 2 3 1 2 2 2 1 2 1 1 2 3 3 3 3 3 3 6 6 6 6 6 6 6 6 7 8 8 9 10 10 10 10 11 11 12 13 13 11 9 9 13 14 14 14 14 14 15 15 15 15 16 15 14 14 14 13 13 12 12 12 12 12 10 9 9 9 9 8 9 6 9 9 10 10 11 12 12 13 12 13 14 14 15
3 2 1 2 1 2 1 1 0 1 2 1 1 2 3 4 3 4 5 6 6 6 6 6 6 7 7 7 8 8 9 9 9 10 11 11 12 11 13 11 10 10 13 16 13 13 15 15 15 15 15 15 16 17 16 15 14 14 14 13 14 15 15 13 12 10 10 10 9 8 8 5 7 7 9 10 10 10 11 11 11 13 13 13 13
3 3 2 2 1 1 1 1 1 2 2 2 1 2 3 3 3 4 5 5 6 6 5 5 6 6 7 7 7 7 8 9 9 8 9 10 11 12 12 9 10 10 10 10 14 14 14 14 15 15 15 16 17 17 17 16 16 15 15 15 16 18 23 23 14 15 13 11 10 10 8 7 4 1 7 10 10 10 10 9 10 11 11 11 10
3 3 2 2 1 1 2 1 1 0 1 1 1 3 3 3 3 3 4 5 5 5 5 5 6 6 6 6 7 7 7 8 9 10 9 10 11 12 13 13 11 11 10 11 13 14 14 14 16 15 15 15 15 17 16 18 17 17 18 16 23 36 33 32 20 19 19 12 12 12 11 9 9 8 7 2 7 10 10 8 8 9 8 9 10
3 3 2 1 2 1 2 1 0 0 0 1 1 2 2 3 3 4 4 4 4 4 4 5 5 6 6 8 9 8 8 9 9 9 9 9 10 11 12 12 9 9 10 10 11 14 13 14 15 16 15 15 15 16 16 17 18 18 17 22 34 35 34 33 29 33 22 13 13 11 11 10 10 10 9 8 7 3 6 8 8 8 9 11 11
4 3 2 2 1 1 1 1 1 1 0 0 0 1 2 3 3 3 3 3 4 5 4 5 5 6 6 6 7 7 8 8 7 8 8 8 10 10 11 11 10 10 13 12 11 12 13 14 14 15 15 15 14 16 16 17 17 21 27 36 36 35 35 32 23 28 33 21 13 14 13 13 13 12 11 10 8 9 8 6 5 6 8 9 10
Wind_Direction
279 273 283 283 294 300 300 300 295 295 298 297 296 296 297 295 296 295 298 293 297 295 292 291 291 289 289 286 287 285 287 286 285 280 277 273 272 271 273 268 268 268 268 270 269 275 274 271 268 262 262 267 273 277 265 240 228 227 231 231 232 233 232 237 251 262 268 227 257 261 268 273 236 184 174 173 183 174 167 162 161 166 163 169 173
263 276 275 287 294 294 290 291 297 302 302 301 296 297 297 298 300 300 294 294 296 294 293 291 290 289 290 288 284 287 287 287 284 282 276 277 275 274 273 271 269 269 270 271 271 271 271 266 265 269 261 263 269 273 272 253 233 222 225 225 231 234 226 236 245 255 266 255 241 252 259 260 261 200 172 167 169 177 164 161 161 169 166 163 167
271 276 294 303 293 289 299 306 308 304 301 297 295 299 300 300 301 297 297 299 295 292 293 296 293 292 290 288 289 288 289 288 285 282 279 277 276 274 272 271 270 270 269 268 270 274 272 275 280 282 284 275 268 267 269 258 239 235 235 232 235 234 232 232 244 250 257 266 247 258 252 257 250 226 177 169 168 170 165 164 162 162 162 159 161
276 301 299 289 295 306 312 309 304 300 297 296 296 299 299 298 297 295 296 296 297 297 297 297 295 292 291 290 290 291 289 286 287 284 279 277 277 276 274 271 269 269 268 269 270 270 270 272 273 272 267 266 264 265 265 255 242 237 236 234 235 237 231 236 238 249 258 266 256 236 254 249 253 227 186 168 171 174 168 164 164 162 159 161 162
304 293 293 307 316 318 311 308 301 298 296 298 298 298 296 297 296 299 302 301 302 304 301 301 297 295 294 294 292 290 289 288 286 283 280 277 277 277 276 275 272 270 269 268 268 268 269 269 272 273 275 270 265 267 272 271 251 241 239 239 242 241 240 237 238 240 252 254 262 243 248 248 248 230 190 170 172 171 167 163 163 159 159 161 163
284 303 319 323 321 314 307 302 299 299 300 300 299 299 297 296 302 304 308 307 307 305 302 300 299 296 294 293 291 289 288 286 284 281 279 277 276 275 273 272 272 271 270 269 268 266 267 268 270 267 263 265 268 266 268 269 258 245 239 241 243 245 243 238 234 238 243 249 252 254 241 243 244 231 196 170 163 161 166 162 162 162 156 157 163
322 331 331 323 313 306 302 299 301 302 303 301 300 299 299 304 310 312 314 310 307 306 305 301 297 297 295 293 290 289 288 285 282 279 278 277 275 273 272 270 269 269 268 268 267 267 266 268 268 265 263 261 262 264 266 267 264 255 240 240 239 243 247 247 241 239 241 248 248 245 247 242 235 230 199 172 166 164 164 163 155 157 158 157 159
336 336 329 315 303 298 297 299 301 301 300 299 299 303 309 313 315 315 315 313 309 305 305 302 299 296 294 291 289 288 286 285 282 278 276 274 272 270 268 268 268 269 270 268 268 267 268 268 267 264 263 262 255 253 249 250 256 256 249 241 242 245 252 253 245 236 240 246 246 241 234 239 235 228 195 170 165 170 168 162 156 155 161 161 160
335 326 316 300 294 295 298 302 301 300 302 303 309 314 317 317 318 318 316 310 306 302 300 299 297 295 291 288 287 286 284 282 280 278 276 272 268 266 265 262 260 262 264 264 263 262 264 266 265 263 260 261 260 260 263 266 258 247 240 234 235 242 249 252 253 266 263 251 246 237 234 229 229 218 207 173 166 167 169 168 159 161 159 158 161
325 315 300 292 294 297 301 302 302 304 307 313 318 322 322 323 320 316 310 304 300 297 294 292 290 289 290 288 286 285 283 281 280 279 277 275 271 268 264 260 256 254 257 259 258 255 253 256 262 263 263 260 259 259 257 256 259 261 261 241 234 235 237 247 252 256 262 264 253 233 227 227 225 207 205 179 165 161 167 162 157 157 149 148 145
307 296 289 289 294 301 303 305 306 306 315 319 325 327 325 321 316 310 305 302 297 297 292 290 288 287 285 285 287 286 283 280 282 282 282 279 276 273 271 270 267 261 256 258 260 256 254 255 258 262 265 266 264 261 258 259 257 257 256 251 242 237 240 242 245 243 254 259 268 246 225 227 222 204 190 182 168 165 167 157 148 150 152 153 154
291 282 281 289 297 302 303 302 305 313 324 329 328 325 318 315 312 308 305 304 302 296 294 283 279 284 288 291 290 289 288 287 287 288 285 283 280 277 272 270 266 264 262 256 260 266 267 271 271 271 262 254 252 252 254 254 254 252 252 254 246 236 233 232 240 249 243 254 262 263 240 228 218 211 195 173 169 166 168 156 154 156 159 161 160
279 277 282 290 297 301 297 302 314 322 330 328 323 319 315 312 311 309 306 303 299 296 289 292 300 305 301 299 298 296 294 294 294 291 288 285 283 280 276 269 265 263 262 263 260 260 259 263 268 264 271 270 265 261 263 259 256 251 249 246 241 237 235 232 234 235 248 250 255 261 257 230 218 207 199 174 158 165 165 163 162 163 165 165 168
271 275 282 291 293 290 297 318 323 328 328 323 320 317 315 310 307 303 302 301 297 298 307 310 309 305 303 300 299 298 296 295 294 294 293 290 286 283 275 274 262 253 254 253 255 251 253 248 261 260 264 267 262 251 240 242 249 242 238 235 234 237 236 238 240 240 237 240 250 254 256 246 216 205 196 172 162 163 169 167 166 165 169 175 169
272 275 293 287 283 293 323 330 331 329 325 322 318 315 311 307 306 306 305 305 309 314 315 311 307 305 305 304 302 299 296 296 297 298 298 296 293 291 283 275 267 256 254 251 251 250 253 249 250 251 258 260 264 262 263 260 257 256 256 254 249 247 241 236 234 234 237 238 244 250 251 255 231 203 190 180 166 169 173 172 171 171 161 128 88
271 283 285 280 297 329 336 332 333 327 323 320 316 313 310 307 309 309 305 306 307 308 305 306 308 306 304 300 300 298 296 297 299 299 298 297 296 293 283 276 266 255 253 253 248 255 253 255 254 254 253 254 258 260 259 263 269 271 268 263 258 252 249 239 238 237 240 246 252 257 260 250 248 213 192 180 172 170 169 157 142 130 127 137 145
270 280 274 293 326 340 337 336 331 326 322 318 314 312 312 310 308 306 308 310 310 309 306 306 305 301 300 298 296 296 292 297 301 303 302 301 302 294 292 287 270 253 255 247 245 247 253 252 253 253 250 248 252 257 259 258 255 252 252 256 257 258 258 254 248 247 249 250 255 257 256 256 245 223 199 175 164 150 137 141 151 150 155 160 159
265 275 288 316 338 339 334 334 328 323 317 312 309 307 304 299 301 309 309 311 309 306 305 301 299 297 297 297 294 295 297 299 302 303 303 301 302 303 301 294 286 282 265 251 244 244 249 253 252 245 242 243 247 251 252 249 246 244 246 250 254 256 258 256 258 256 253 261 267 265 257 245 241 215 194 171 151 149 155 163 166 162 160 154 160
264 288 312 332 336 331 330 330 321 312 307 302 304 304 305 306 303 304 302 300 299 300 300 298 296 295 292 292 296 299 295 297 299 301 300 302 306 299 302 307 306 303 291 272 252 247 249 255 253 251 249 250 250 251 251 248 244 243 245 249 252 254 253 256 259 268 275 282 280 271 247 234 224 203 188 166 157 163 166 164 166 166 165 167 163
288 309 316 328 326 327 329 323 310 304 300 299 298 298 300 303 306 307 304 299 299 299 296 295 295 295 295 293 293 292 294 291 292 295 303 308 310 311 306 300 296 296 294 286 259 244 240 247 256 254 254 252 253 252 250 247 243 238 237 241 246 252 255 258 255 257 272 276 281 276 242 215 205 193 180 169 166 168 171 164 166 168 166 163 160
315 316 322 320 325 325 329 315 304 297 292 294 298 300 304 304 308 307 306 303 298 298 297 296 295 294 295 294 292 296 290 288 298 311 310 310 312 312 301 297 295 293 294 292 286 272 250 243 246 251 252 251 250 250 247 244 242 237 235 239 241 254 260 255 261 261 269 276 278 270 233 202 192 186 177 173 171 174 170 169 170 169 163 162 165
326 318 324 323 321 330 321 310 297 296 296 297 304 305 305 304 302 304 303 303 303 301 303 300 299 298 298 300 297 299 292 302 306 311 315 315 314 312 308 297 296 292 291 286 283 284 277 261 248 249 253 255 255 254 252 250 250 247 242 243 246 245 247 249 260 261 263 269 274 255 214 188 184 183 179 173 172 173 169 172 179 173 167 168 172
326 317 320 324 345 332 318 307 305 300 301 304 307 310 310 310 306 304 302 304 303 306 306 307 308 309 309 307 309 297 299 314 318 317 317 317 315 314 310 307 303 302 293 288 288 287 288 287 275 265 260 256 254 253 253 252 251 247 248 250 244 240 240 242 242 251 258 264 265 241 193 178 175 177 177 172 171 169 169 174 178 174 173 178 181
309 309 329 349 349 331 315 307 300 300 302 309 311 308 312 312 310 306 305 305 311 314 314 316 317 316 319 321 323 316 322 325 319 315 312 313 317 317 316 314 312 305 298 289 288 283 283 278 272 279 280 270 258 252 251 251 249 248 246 249 247 239 228 226 236 246 254 258 260 224 182 176 177 174 174 169 168 173 172 172 173 174 175 176 163
240 358 14 12 353 325 314 307 305 301 308 313 316 316 314 317 313 310 306 312 317 319 315 320 324 322 319 325 326 324 327 324 315 311 314 321 323 322 321 319 315 312 303 288 279 281 279 279 279 280 280 280 276 259 249 247 248 249 245 243 238 226 223 228 237 242 245 250 251 217 178 179 179 181 175 171 171 170 165 157 120 83 85 94 91
70 41 34 21 346 326 319 315 312 312 316 314 309 307 308 315 313 310 314 320 323 320 320 329 327 326 326 329 329 330 326 321 315 315 314 311 325 326 326 323 318 313 306 292 290 288 286 285 284 282 281 279 279 262 232 233 238 243 241 231 226 220 219 226 230 233 240 246 244 213 185 179 182 183 173 164 163 163 151 137 129 125 125 129 118
78 47 37 12 338 325 318 315 323 326 325 320 308 309 313 309 308 307 319 315 301 299 326 336 329 331 329 321 329 332 327 325 328 321 316 328 330 328 330 323 319 319 314 299 290 283 282 283 278 279 279 282 279 270 246 231 233 231 223 222 217 217 220 222 225 230 238 242 241 217 191 181 168 159 162 161 160 161 159 157 157 152 144 148 143
72 52 36 15 336 315 311 319 326 321 323 324 317 311 311 304 312 321 321 320 312 302 306 332 326 319 321 324 325 330 331 331 330 330 335 335 335 336 333 327 323 323 323 314 303 289 284 281 279 272 275 275 272 252 231 227 225 223 214 212 214 215 219 221 227 234 241 248 245 215 173 169 164 157 153 163 167 164 162 160 159 155 150 141 135
81 64 44 16 335 308 303 307 316 319 319 322 314 295 300 312 322 318 325 318 329 335 336 329 329 331 327 329 328 334 333 336 335 341 339 340 343 342 339 338 333 334 331 326 310 286 266 262 254 273 271 274 274 260 234 217 215 217 216 212 211 210 212 209 220 230 234 242 233 195 167 165 168 164 160 162 166 164 162 164 163 156 155 157 159
80 59 46 8 322 310 316 317 317 319 320 323 325 324 317 332 339 336 330 339 342 341 344 340 341 336 334 331 340 345 338 337 340 344 344 345 348 348 349 346 348 349 348 341 340 321 306 268 270 271 277 276 278 269 244 212 209 209 216 219 217 217 217 221 223 226 235 236 213 177 168 168 169 169 164 162 161 163 167 164 162 159 157 166 165
80 69 44 359 315 316 317 320 321 323 318 316 314 321 326 328 346 355 350 345 344 343 344 344 346 349 349 337 346 350 348 346 348 350 350 349 351 352 352 348 358 1 3 356 10 10 360 0 354 349 343 330 315 297 255 222 213 207 217 221 220 220 219 223 220 216 230 228 207 188 175 169 169 170 169 166 164 164 167 169 162 167 170 170 168
90 77 58 316 304 306 303 312 315 327 323 313 308 316 319 327 328 339 352 350 344 342 343 346 349 350 351 350 355 345 354 353 354 354 355 353 354 355 354 348 0 7 10 20 24 8 354 350 347 349 343 334 335 333 330 302 233 204 213 212 219 214 212 221 215 216 222 219 199 183 181 174 168 173 170 168 166 165 165 166 168 172 176 174 171
103 93 63 312 296 306 312 307 321 319 317 315 317 315 323 333 339 331 333 341 345 347 346 347 350 350 352 351 359 2 0 358 358 359 360 357 355 355 354 350 0 12 17 23 15 1 354 350 349 344 344 335 334 335 329 334 326 288 216 214 216 214 210 220 216 220 219 214 198 183 186 182 171 170 173 168 167 167 168 168 173 176 172 173 171
114 132 184 261 292 298 306 310 324 317 302 304 303 317 325 337 336 329 329 332 340 344 347 350 349 347 351 352 -0 3 2 0 1 2 3 2 358 357 355 344 11 22 24 16 9 355 347 345 347 347 341 335 336 333 333 331 328 331 319 271 230 217 217 218 220 220 216 208 204 184 181 186 176 169 169 170 172 167 169 173 171 169 172 174 170
110 69 309 296 274 276 295 323 315 307 300 309 316 329 331 340 342 339 340 335 335 336 331 334 340 347 352 351 1 3 0 360 1 3 7 6 3 356 355 2 10 1 10 8 3 349 343 336 338 343 343 342 336 334 332 328 328 329 325 320 300 241 219 218 222 217 210 204 199 190 178 178 182 176 168 171 171 171 171 172 174 172 173 177 173
94 80 277 281 274 261 321 296 315 302 294 317 318 326 330 341 345 339 332 328 327 328 326 333 328 336 349 350 359 1 358 358 359 2 4 9 10 3 3 356 356 358 351 0 352 343 337 343 351 343 342 340 337 336 332 330 331 322 316 312 313 296 240 222 219 214 209 204 195 186 179 176 178 180 175 171 174 175 175 176 175 177 174 172 171
111 106 256 266 237 278 328 316 297 307 340 331 325 338 340 347 342 340 336 334 329 330 326 326 332 335 347 338 354 359 357 358 358 1 5 7 10 9 354 359 352 352 1 360 355 345 355 356 352 346 344 342 339 336 333 332 328 325 321 317 306 305 283 241 217 213 206 202 196 183 183 180 176 179 177 174 176 177 175 177 177 173 174 171 166
118 162 250 232 161 46 355 326 313 353 323 331 337 345 345 350 350 342 338 334 335 335 333 338 343 344 345 339 354 3 350 352 358 6 5 8 8 358 352 355 346 345 354 357 357 352 352 351 354 352 347 342 337 336 335 333 334 331 331 320 316 309 309 279 226 213 208 203 194 184 182 181 180 178 180 179 177 177 178 178 175 173 174 172 170
106 241 257 6 98 130 64 319 327 332 336 345 351 1 1 356 352 348 344 335 328 332 332 336 342 345 340 325 339 358 355 2 5 1 358 359 1 2 357 355 346 338 344 355 355 355 352 352 351 350 346 348 343 344 340 335 334 334 333 329 325 326 335 329 263 212 214 203 198 187 184 183 181 184 183 182 180 176 177 178 177 174 173 175 181
79 24 309 74 60 14 36 337 337 348 344 357 354 5 359 2 354 342 333 331 332 331 330 338 340 338 330 311 348 5 360 357 356 355 356 359 2 3 1 357 353 345 344 349 355 354 352 350 349 352 350 348 347 344 346 343 340 330 332 336 338 333 331 338 335 282 213 206 198 187 186 185 181 184 187 188 182 179 176 177 179 179 179 179 183
95 274 330 14 83 65 347 23 357 0 350 346 357 356 358 347 340 333 327 327 326 324 332 330 329 330 325 343 358 8 7 351 349 351 355 354 354 356 356 354 349 346 339 343 349 353 352 350 349 352 352 350 347 346 346 346 345 341 339 340 341 337 331 338 340 343 321 241 199 194 189 186 183 181 187 189 185 180 179 176 177 179 182 183 176
129 153 95 10 22 276 14 23 4 356 339 347 359 359 359 350 340 332 336 329 324 326 326 329 329 330 333 349 355 2 4 348 350 352 355 356 354 354 341 351 356 345 340 339 344 350 350 350 350 352 355 353 350 348 348 350 351 349 346 342 339 339 340 337 341 333 333 323 264 199 195 190 186 188 186 183 180 184 179 178 178 179 179 179 176
159 156 156 122 155 204 96 347 328 358 0 17 359 359 1 358 342 337 329 323 322 328 330 335 333 336 339 348 353 357 356 350 352 352 352 352 351 346 348 354 355 344 337 337 341 347 348 349 350 351 356 353 352 349 350 349 346 346 346 345 341 341 334 337 337 336 330 323 322 281 204 192 190 191 188 183 180 179 182 180 181 181 180 175 175
133 127 127 137 107 36 63 34 29 10 357 12 8 1 2 356 341 338 332 327 328 326 333 329 329 337 336 344 350 353 352 348 349 348 347 347 349 350 350 350 346 342 347 346 344 347 350 351 351 349 351 356 353 353 351 352 350 349 348 346 345 342 342 335 336 333 325 321 306 309 266 203 193 190 187 183 181 180 180 181 182 183 179 178 175
120 126 123 133 134 82 45 2 53 19 15 16 10 356 354 357 350 337 338 333 325 329 333 331 337 337 340 344 348 347 345 344 339 342 347 349 348 347 348 347 333 329 347 347 342 345 350 353 351 350 350 356 356 356 356 354 357 354 350 350 351 348 344 335 327 311 311 299 304 300 290 226 202 193 186 185 184 182 182 181 182 181 180 179 176
126 141 143 142 114 91 59 12 33 35 14 9 11 359 351 350 340 337 338 324 326 331 332 336 337 340 340 340 342 344 343 339 340 338 341 346 347 344 346 328 312 331 349 349 339 344 350 352 351 349 348 353 356 357 357 357 357 358 356 354 358 351 342 336 326 318 309 314 306 298 288 248 200 201 193 187 187 186 185 183 183 181 182 181 184
133 140 142 129 123 106 88 18 347 35 14 5 4 3 352 346 337 342 333 330 330 331 339 338 341 344 343 343 343 339 339 337 337 340 341 339 340 340 342 329 331 330 346 351 338 344 351 352 351 348 347 349 358 357 -0 358 358 359 359 359 359 360 355 349 348 341 328 321 315 308 302 268 193 188 188 189 189 192 188 187 182 181 184 183 183
137 137 128 126 125 123 128 89 42 42 17 5 348 358 339 337 339 335 334 328 324 332 338 337 341 338 339 339 338 337 337 334 331 333 338 340 340 340 333 322 331 326 310 329 348 346 351 351 349 347 348 351 360 1 359 359 359 359 2 1 3 5 4 4 0 360 351 343 336 338 335 354 18 110 173 181 184 186 187 185 185 186 184 183 182
143 143 141 142 159 164 164 146 122 80 343 0 356 347 330 340 327 326 319 317 319 329 333 339 337 339 336 333 334 335 332 332 336 339 340 340 340 341 342 339 328 324 331 334 337 342 348 349 350 349 350 348 -0 2 0 0 1 1 3 3 4 7 11 11 11 7 358 356 359 358 4 14 25 24 17 63 173 177 179 173 171 171 174 177 179
152 148 158 169 169 184 170 156 156 199 286 340 4 329 330 330 323 325 326 327 327 333 333 343 343 337 331 333 338 338 339 338 338 335 335 335 337 338 340 337 323 325 339 330 331 340 346 349 349 351 350 348 355 5 2 3 2 3 4 5 8 11 13 15 14 12 12 7 6 5 8 21 26 32 29 24 18 73 134 158 162 164 167 168 171
157 157 161 172 184 184 163 147 187 219 266 267 250 319 319 316 314 320 321 328 326 327 329 339 337 332 332 327 326 329 331 328 326 328 328 331 336 336 337 341 331 325 337 332 324 339 345 349 350 350 350 349 350 7 4 6 5 5 4 9 11 13 16 18 18 15 14 14 14 13 19 22 29 30 29 25 29 37 41 55 101 143 162 170 170